Regional Weather Roundup
Issued by NWS

Home | Current Version | Previous Version | Text Only | Print | Product List | Glossary Off
Versions: 1 2 3 4 5 6 7 8 9 10 11 12 13 14 15 16 17 18 19 20 21 22 23 24 25 26 27 28 29 30 31 32 33 34 35 36 37 38 39 40 41 42 43 44 45 46 47 48 49 50

000
ASUS43 KIND 231359
RWRIN

WEATHER ROUNDUP FOR INDIANA
NATIONAL WEATHER SERVICE INDIANAPOLIS IN
900 AM EST FRI FEB 23 2018

NOTE: "FAIR" INDICATES FEW OR NO CLOUDS BELOW 12,000 FEET WITH NO
SIGNIFICANT WEATHER AND/OR OBSTRUCTIONS TO VISIBILITY.

* - STATION DOES NOT REPORT WEATHER SUCH AS PRECIPITATION OR FOG.

+ - STATION NOT QUALITY CONTROLLED BY THE NATIONAL WEATHER SERVICE.
    USE DATA WITH CAUTION...ESPECIALLY DEWPOINT AND RELATIVE
    HUMIDITY OBSERVATIONS.

INZ001>003-010>013-019-020-231500-
NORTHWEST INDIANA

CITY           SKY/WX    TMP DP  RH WIND       PRES   REMARKS
GARY /AIRPORT/ CLOUDY    43  43 100 S7        30.11S
MICHIGAN CITY+ CLOUDY    41  41 100 S8        30.11S
MONTICELLO +   DRIZZLE   41  40  95 CALM      30.14S
RENSSELAER +   CLOUDY    41  37  87 S6        30.14R FOG

$$

LMZ046-743>745-231500-
SOUTHERN LAKE MICHIGAN

STATION/POSITION TIME  TEMP    WIND        PRES    WAVE
                       AIR SEA DIR/SP/G            HT
                 (UTC) (F)     (DEG/KT/KT) (MB)    (FT)
BURNS HARBOR     1340   41     180/ 11/ 18 1019.6F
MICHIGAN CITY    1330   40     140/ 16/ 17   N/A

$$

INZ004-005-014>016-021>024-231500-
NORTH CENTRAL INDIANA

CITY           SKY/WX    TMP DP  RH WIND       PRES   REMARKS
ELKHART        CLOUDY    39  37  93 SE6       30.12F FOG     WCI  35
GOSHEN         CLOUDY    39  38  96 S8        30.13S FOG     WCI  33
SOUTH BEND     CLOUDY    39  38  96 S7        30.12F WCI  34
WARSAW +       HVY RAIN  37  37 100 CALM      30.14R

$$

INZ006>009-017-018-025>027-231500-
NORTHEAST INDIANA

CITY           SKY/WX    TMP DP  RH WIND       PRES   REMARKS
AUBURN +       RAIN      36  36 100 E3        30.12F
FORT WAYNE     LGT RAIN  41  41 100 SE5       30.11F FOG
KENDALLVILLE + RAIN      37  37 100 CALM      30.13R

$$

INZ028-029-035-036-043>045-051>053-231500-
WEST CENTRAL INDIANA

CITY           SKY/WX    TMP DP  RH WIND       PRES   REMARKS
CRAWFORDSVL +  CLOUDY    47  47 100 SW7       30.16S FOG
GREENCASTLE +  CLOUDY    52  52 100 W7G16     30.18R FOG
LAFAYETTE      CLOUDY    45  45 100 CALM      30.14F FOG
TERRE HAUTE    CLOUDY    51  51 100 W7        30.19R

$$

INZ030>032-037>040-046>048-054>057-064-065-231500-
CENTRAL INDIANA

CITY           SKY/WX    TMP DP  RH WIND       PRES   REMARKS
ANDERSON       CLOUDY    54  54 100 S12G23    30.14R
COLUMBUS       LGT RAIN  54 N/A N/A S12       30.18R FOG
INDIANAPOLIS   LGT RAIN  55  55 100 S15       30.16R FOG
-EAGLE CREEK   LGT RAIN  55  53  93 SW7       30.14R FOG
KOKOMO +       LGT RAIN  47  47 100 W15G21    30.16R FOG
MT COMFORT *+  CLOUDY    54  54 100 S13G21    30.14S
SHELBYVILLE    CLOUDY    56  54  93 S14       30.16R

$$

INZ033-034-041-042-049-050-058-059-231500-
EAST CENTRAL INDIANA

CITY           SKY/WX    TMP DP  RH WIND       PRES   REMARKS
MUNCIE         LGT RAIN  56  54  93 S16       30.12S FOG
RICHMOND +     FOG       50  50 100 S14       30.18S VSB 3/4

$$

INZ060-061-067>069-081>083-085>088-231500-
SOUTHWEST INDIANA

CITY           SKY/WX    TMP DP  RH WIND       PRES   REMARKS
EVANSVILLE     LGT RAIN  59  59 100 SW12      30.23R FOG
HUNTINGBURG +  LGT RAIN  60  59  96 SW12      30.22R FOG

$$

INZ062-063-066-070>080-084-089>092-231500-
SOUTH CENTRAL AND SOUTHEAST INDIANA

CITY           SKY/WX    TMP DP  RH WIND       PRES   REMARKS
BLOOMINGTON    LGT RAIN  59  58  96 SW20G31   30.17R FOG
FRENCH LICK *+ CLOUDY    59 N/A N/A SW12G18   30.21R
SEYMOUR +      CLOUDY    57  57 100 S9        30.19S

$$




USA.gov is the U.S. government's official web portal to all federal, state and local government web resources and services.